Wetbulb
55.33 55.18 54.76 54.51 54.28 54.06 54.33 54.52 54.66 54.84 55.06 55.47 55.74 55.70 55.83 55.98 55.84 49.10 44.72 51.99 53.23 60.90 59.27 51.69 49.96 48.06 45.36 41.99 42.38 40.69 32.03 26.84 30.79 32.91 35.11 41.02 40.04 44.83 47.44 46.58 47.58 49.40 49.82 51.87 54.28
54.83 54.82 54.61 54.36 54.12 53.61 53.74 53.80 54.28 54.89 55.27 55.75 55.68 55.53 56.09 56.51 48.76 47.05 55.73 59.19 60.12 59.59 50.95 48.74 46.55 46.84 41.86 40.21 39.87 37.34 30.30 31.42 37.32 37.96 37.89 40.38 39.92 42.78 43.95 44.44 44.57 47.18 50.59 52.87 59.89
54.61 54.44 54.11 54.18 54.24 53.83 53.56 53.55 53.83 54.70 55.30 55.33 55.19 55.80 56.49 54.93 44.50 47.60 59.59 60.76 59.52 57.56 51.70 49.58 47.38 44.55 40.31 40.46 39.31 34.86 32.75 37.29 39.95 41.80 41.32 39.71 41.24 43.79 42.74 40.32 43.82 44.30 47.96 50.43 59.91
54.94 55.07 54.48 54.20 53.87 53.62 53.32 53.76 53.96 54.48 55.01 55.17 55.44 56.10 57.06 49.36 37.46 49.27 60.39 61.26 59.48 55.69 51.72 46.71 44.00 38.75 36.63 36.15 38.90 34.57 40.25 40.81 40.90 42.36 40.85 40.47 43.33 42.40 43.50 43.67 46.73 47.19 48.59 50.14 50.74
54.30 54.22 54.56 54.46 54.34 54.52 53.94 53.92 54.01 54.39 54.70 55.04 56.04 56.97 50.70 43.63 44.03 53.06 61.04 59.75 56.45 53.67 48.75 45.46 41.06 37.79 34.54 36.21 37.36 35.76 38.50 41.40 42.03 40.87 39.69 42.26 41.42 42.38 43.27 47.49 49.03 47.74 48.43 48.59 50.69
54.42 54.33 54.35 54.69 54.52 54.62 54.55 54.08 53.91 54.20 54.51 55.11 56.34 56.78 47.15 40.56 50.79 55.34 56.17 54.75 53.30 50.74 48.63 45.22 43.33 41.70 37.05 36.73 34.86 38.25 38.95 39.63 39.89 39.50 39.26 39.35 40.89 42.34 44.14 47.42 47.32 46.86 47.34 48.63 50.06
54.96 54.06 54.02 54.48 54.91 55.10 54.81 54.83 54.22 54.20 54.53 55.71 56.67 53.81 45.99 44.96 53.49 53.44 55.24 52.27 52.37 52.26 47.95 48.09 46.27 42.41 39.87 37.74 38.29 38.63 34.25 36.63 37.34 37.75 38.46 40.47 37.56 39.39 45.11 45.82 44.49 45.20 46.65 48.04 50.25
54.92 54.42 53.89 54.12 54.59 54.96 55.02 54.75 54.26 54.08 54.75 55.93 56.38 49.77 44.60 52.23 52.74 51.96 53.45 53.01 54.12 52.32 50.26 50.36 46.21 41.69 38.79 39.68 39.21 35.42 31.62 27.27 35.09 38.98 39.77 39.01 33.75 40.07 44.46 42.73 42.33 44.31 46.32 47.68 47.93
54.74 54.14 53.75 54.12 54.30 54.63 54.48 54.14 54.14 54.52 55.27 55.83 49.56 46.65 43.58 55.55 52.04 54.34 53.74 51.24 50.80 51.36 49.87 52.94 45.15 40.82 39.63 34.03 31.77 32.03 28.61 29.85 34.87 38.39 38.95 37.17 34.43 39.67 42.37 42.51 42.36 42.73 43.78 46.10 47.07
54.49 53.97 53.77 53.68 53.89 54.05 53.96 53.54 54.86 53.21 53.91 55.08 52.79 43.14 46.35 47.68 51.82 51.76 52.08 52.49 49.53 48.62 47.49 45.01 40.14 36.51 33.69 32.24 28.35 30.85 30.89 33.42 34.36 37.71 40.72 38.49 38.08 42.61 44.88 41.40 41.63 41.33 42.25 44.60 46.17
54.43 53.81 53.64 53.97 53.85 53.49 49.97 47.98 44.89 44.22 47.36 45.06 45.87 45.98 48.70 52.43 53.80 50.55 51.73 49.34 48.45 45.49 38.83 41.98 37.26 34.94 38.38 38.20 37.88 37.31 34.66 33.67 38.07 41.53 38.33 37.82 39.09 41.42 44.12 40.11 40.51 39.57 40.90 42.56 44.82
54.08 53.87 53.77 53.71 53.46 52.98 47.09 46.67 47.56 47.76 42.97 48.05 48.51 48.51 51.09 52.01 47.93 49.42 53.01 45.95 44.13 39.33 41.27 38.86 35.65 41.61 42.24 42.01 39.99 38.17 35.70 35.56 39.48 42.47 39.22 38.47 37.58 41.31 42.23 42.77 42.84 42.61 41.59 42.16 43.97
53.34 53.23 53.64 53.59 52.57 48.28 46.23 47.86 51.12 48.70 41.34 45.59 48.23 44.11 45.38 46.36 44.09 46.49 49.49 46.66 42.57 39.77 39.23 36.30 40.05 44.15 42.31 38.85 37.06 37.00 35.41 36.06 35.98 40.03 41.34 39.33 36.22 38.46 41.77 43.22 44.31 44.88 44.96 44.51 43.99
53.15 53.11 53.15 52.55 47.01 44.47 44.58 48.48 47.52 49.99 32.83 38.22 42.67 44.57 46.37 45.78 43.07 49.44 51.69 47.75 42.77 39.50 40.82 38.63 42.34 41.55 38.06 37.75 38.59 33.37 40.00 39.37 38.50 37.25 32.65 39.91 28.83 35.76 40.27 40.03 41.19 42.07 42.50 43.67 44.65
53.01 52.90 52.83 51.42 44.23 43.95 45.58 47.69 47.36 46.71 22.71 41.27 42.66 47.26 45.22 42.33 44.11 44.82 50.48 47.73 40.65 40.58 39.87 36.79 37.71 37.09 36.33 37.69 40.49 37.29 42.21 40.07 39.85 37.48 36.63 36.76 32.57 34.31 37.84 36.97 39.61 42.49 41.51 41.62 44.84
52.68 52.55 52.27 48.21 44.67 46.85 48.19 47.40 45.89 31.62 24.67 37.77 42.22 40.85 39.49 42.25 42.76 44.19 44.10 46.45 44.70 38.95 38.80 38.77 41.70 39.72 38.82 41.95 42.12 42.57 40.09 39.09 38.95 37.03 29.20 31.42 31.90 30.02 33.96 35.65 38.78 40.69 41.75 43.34 44.33
52.11 51.95 49.50 48.95 46.31 46.94 46.43 44.45 32.80 25.72 38.52 36.41 37.60 39.21 37.52 38.19 39.49 40.46 37.97 37.66 34.80 30.27 32.66 35.54 36.29 40.08 42.67 37.93 40.10 38.57 36.00 30.95 23.65 27.95 27.25 34.22 30.88 32.17 39.78 43.47 41.98 40.10 40.64 42.71 44.94
50.53 50.22 49.78 50.58 48.63 46.96 42.94 37.20 28.16 34.76 35.82 41.26 40.62 38.86 35.55 37.87 37.50 37.83 35.70 33.03 37.97 35.12 30.75 29.50 28.56 37.08 41.76 38.26 36.24 36.51 38.10 31.28 24.87 26.92 29.76 35.36 29.42 32.73 45.19 47.85 47.82 49.01 44.98 42.37 41.88
48.73 47.64 47.98 47.80 47.99 44.10 40.83 29.91 30.00 34.92 40.04 38.94 37.73 33.94 33.69 37.14 36.21 34.91 33.78 33.75 38.60 36.48 30.21 29.45 31.51 40.64 41.75 42.54 41.33 38.71 36.81 41.00 31.83 34.33 30.47 31.52 34.38 39.19 45.01 45.58 47.18 47.90 48.93 48.14 43.26
42.44 43.99 46.24 48.53 45.88 43.97 37.45 34.34 35.27 41.23 42.30 40.21 32.14 35.62 30.97 33.94 33.39 32.06 32.40 38.29 40.03 40.44 37.99 34.94 31.04 38.61 41.36 42.20 43.08 42.02 43.85 35.75 34.32 25.78 25.69 32.28 33.81 36.05 41.04 42.96 45.78 47.32 47.54 48.22 49.66
42.09 41.16 47.42 47.76 46.12 40.12 31.24 32.88 38.71 43.93 43.01 38.76 34.80 34.20 34.76 33.91 33.89 32.10 33.77 38.10 41.92 39.97 38.83 36.44 37.36 34.95 38.46 36.45 35.47 39.45 38.19 39.54 38.83 34.70 28.81 27.70 33.34 44.09 42.20 45.46 45.85 47.50 49.17 48.65 49.20
39.80 37.22 45.92 46.25 38.15 33.38 32.74 37.07 42.30 42.32 41.81 41.05 39.10 37.51 35.25 35.84 33.49 33.40 33.66 37.39 43.30 40.10 35.96 37.78 38.16 33.36 34.46 40.43 41.75 41.93 40.12 39.70 34.73 33.71 32.39 32.55 33.62 46.55 43.98 47.83 48.73 48.98 51.15 51.35 50.59
38.43 38.33 46.16 45.35 32.72 32.20 36.13 39.46 41.93 39.84 38.91 38.14 36.86 39.14 38.03 34.29 31.56 35.23 36.98 42.95 44.13 40.03 38.13 38.91 32.24 31.43 30.83 34.90 39.54 37.39 40.71 42.11 42.11 40.83 32.39 29.76 32.77 45.08 47.38 47.65 47.88 49.52 53.66 52.69 54.21
38.77 35.25 38.03 37.75 36.21 33.96 33.64 35.45 35.98 41.59 39.65 39.01 37.58 38.90 34.87 33.16 35.67 34.18 35.25 40.79 43.26 41.16 47.53 44.41 37.40 35.60 30.22 33.60 38.22 36.82 40.26 41.09 41.65 35.72 35.43 32.75 36.95 43.77 45.88 45.55 46.14 46.91 53.22 54.02 51.21
38.44 34.65 35.11 32.54 34.66 33.98 33.71 35.25 35.05 34.99 38.65 38.12 36.13 35.99 32.39 30.15 32.58 32.88 36.94 38.23 41.15 44.16 44.53 42.19 35.71 38.01 36.93 38.14 39.50 39.83 40.40 39.72 40.44 39.13 35.27 39.02 40.32 43.15 45.98 46.37 46.68 47.31 50.69 54.23 55.92
35.83 36.40 37.28 35.54 35.54 34.24 34.49 32.90 34.69 36.70 35.30 34.95 33.76 37.27 34.30 31.80 33.91 33.59 35.35 35.22 36.13 40.45 40.96 41.73 35.76 39.21 35.56 38.28 40.32 37.73 40.77 40.48 41.42 39.99 40.02 40.95 40.15 46.92 47.66 48.68 46.50 45.91 47.11 51.27 53.86
38.20 38.08 37.74 36.33 33.33 32.49 33.04 35.12 36.25 37.73 38.40 38.39 37.04 35.05 33.62 36.38 38.21 38.77 38.62 39.17 39.12 39.47 38.63 39.09 38.81 36.89 30.03 36.16 37.57 35.75 38.84 39.69 40.63 41.56 40.39 37.77 42.13 47.01 45.61 46.66 44.57 44.48 45.85 49.20 51.49
MSLP
1017.37 1017.09 1016.86 1016.62 1016.41 1016.22 1016.04 1015.79 1015.56 1015.33 1015.10 1014.85 1014.54 1014.26 1013.99 1013.72 1013.20 1012.88 1012.22 1011.52 1011.39 1011.04 1010.86 1010.75 1010.66 1010.76 1010.93 1011.39 1011.76 1012.45 1013.59 1013.89 1012.99 1012.08 1011.23 1010.28 1009.96 1008.97 1008.28 1007.90 1007.23 1006.56 1005.74 1004.82 1003.77
1017.40 1017.05 1016.74 1016.46 1016.24 1016.10 1015.95 1015.75 1015.47 1015.16 1014.93 1014.64 1014.38 1014.15 1013.88 1013.63 1013.49 1012.40 1011.08 1011.09 1011.20 1011.23 1011.20 1011.15 1011.16 1011.12 1011.58 1011.79 1012.04 1012.71 1013.81 1013.40 1012.52 1011.83 1011.22 1010.54 1010.14 1009.46 1008.65 1007.83 1007.40 1006.78 1005.34 1004.63 1004.14
1017.35 1016.96 1016.64 1016.30 1016.07 1015.93 1015.81 1015.65 1015.38 1015.03 1014.72 1014.36 1014.16 1013.97 1013.64 1013.47 1013.10 1011.48 1010.86 1011.22 1011.33 1011.38 1011.53 1011.40 1011.32 1011.40 1011.85 1012.08 1012.41 1012.88 1013.10 1012.42 1011.79 1011.19 1010.84 1010.48 1009.88 1009.15 1008.49 1007.81 1007.16 1006.52 1005.42 1004.75 1004.25
1017.36 1016.96 1016.59 1016.26 1016.00 1015.79 1015.69 1015.45 1015.17 1014.91 1014.64 1014.37 1013.97 1013.68 1013.19 1013.24 1012.53 1010.78 1010.73 1011.12 1011.35 1011.49 1011.53 1011.43 1011.51 1011.81 1012.28 1012.44 1012.46 1012.69 1012.04 1011.80 1011.32 1010.70 1010.55 1010.27 1009.47 1008.73 1008.31 1007.51 1006.72 1006.16 1005.33 1004.52 1004.20
1017.41 1016.93 1016.46 1016.16 1015.96 1015.79 1015.65 1015.46 1015.18 1014.90 1014.65 1014.38 1013.94 1013.49 1013.03 1012.60 1011.55 1010.47 1010.72 1011.11 1011.40 1011.55 1011.52 1011.57 1011.67 1012.07 1012.50 1012.62 1012.59 1012.43 1011.93 1011.60 1011.13 1010.74 1010.21 1009.46 1008.99 1008.24 1007.30 1006.87 1006.00 1005.68 1005.04 1004.21 1003.87
1017.38 1016.96 1016.51 1016.09 1015.77 1015.60 1015.47 1015.28 1015.09 1014.88 1014.57 1014.34 1013.94 1013.43 1013.16 1012.16 1010.73 1010.76 1010.92 1011.28 1011.56 1011.69 1011.50 1011.53 1011.47 1011.64 1012.17 1012.46 1012.65 1012.05 1011.73 1011.35 1010.81 1009.99 1009.32 1008.91 1007.84 1007.60 1006.31 1005.64 1005.47 1005.19 1004.70 1003.91 1003.48
1017.34 1016.89 1016.43 1016.03 1015.76 1015.46 1015.27 1015.11 1014.99 1014.82 1014.52 1014.28 1014.05 1013.84 1013.29 1011.69 1010.84 1011.00 1011.17 1011.29 1011.43 1011.54 1011.43 1011.13 1011.09 1011.58 1011.96 1012.21 1012.22 1012.09 1011.85 1011.21 1010.15 1009.58 1009.04 1008.30 1007.48 1006.58 1005.59 1005.17 1005.00 1004.81 1004.49 1003.91 1003.25
1017.18 1016.80 1016.39 1015.90 1015.53 1015.34 1015.06 1014.97 1014.97 1014.84 1014.65 1014.45 1014.19 1014.03 1012.77 1010.92 1010.76 1010.80 1011.06 1011.10 1011.07 1011.18 1011.28 1010.84 1011.17 1011.61 1012.10 1012.22 1012.20 1012.46 1012.24 1011.77 1010.23 1009.51 1008.49 1008.35 1006.72 1006.42 1005.61 1005.33 1005.15 1004.55 1004.34 1003.84 1003.09
1016.99 1016.56 1016.22 1015.80 1015.31 1015.09 1014.80 1014.70 1014.75 1014.74 1014.71 1014.60 1014.52 1014.11 1012.20 1010.83 1010.73 1010.13 1010.37 1010.72 1010.67 1010.58 1010.73 1010.71 1011.24 1011.74 1012.23 1012.81 1013.20 1013.06 1012.64 1011.70 1010.16 1008.82 1008.52 1008.17 1006.66 1005.87 1005.79 1005.67 1005.01 1004.61 1004.12 1003.87 1003.14
1016.86 1016.30 1015.89 1015.61 1015.15 1014.89 1014.55 1014.57 1014.56 1014.69 1014.71 1014.53 1014.43 1014.08 1011.71 1010.92 1010.21 1010.02 1010.07 1010.44 1010.73 1010.84 1010.90 1011.03 1011.74 1012.25 1012.96 1013.42 1013.32 1013.00 1012.63 1011.89 1010.30 1008.66 1008.42 1007.77 1006.35 1004.79 1005.36 1005.26 1004.49 1004.18 1003.99 1003.65 1003.10
1016.65 1016.06 1015.53 1015.32 1015.03 1014.89 1014.93 1014.83 1014.94 1014.59 1014.26 1014.12 1014.00 1013.42 1012.03 1010.65 1009.99 1009.99 1010.05 1010.38 1010.69 1011.18 1011.59 1011.75 1012.35 1012.50 1012.37 1012.53 1012.44 1012.45 1011.96 1010.77 1008.98 1008.83 1008.54 1007.50 1006.11 1004.84 1004.05 1004.29 1003.84 1003.52 1003.50 1003.35 1002.81
1016.43 1015.84 1015.33 1014.97 1014.66 1014.72 1014.86 1014.43 1013.94 1013.75 1013.75 1013.40 1013.27 1012.90 1011.71 1011.19 1010.79 1010.30 1010.03 1010.71 1011.05 1011.50 1011.89 1012.44 1012.09 1011.66 1011.86 1011.81 1011.91 1011.82 1011.41 1009.79 1008.59 1008.17 1008.27 1007.02 1004.67 1004.35 1003.03 1002.90 1002.88 1002.72 1002.73 1002.61 1002.47
1016.31 1015.70 1015.20 1014.81 1014.53 1014.79 1014.59 1013.77 1013.34 1013.43 1013.89 1013.08 1012.49 1012.05 1011.60 1011.35 1011.15 1010.73 1010.56 1010.93 1011.38 1011.88 1012.14 1012.58 1011.27 1011.39 1011.67 1011.45 1011.43 1011.09 1010.76 1009.60 1008.82 1007.67 1007.44 1006.40 1002.73 1003.12 1001.58 1001.47 1001.43 1001.25 1001.02 1001.36 1001.49
1016.13 1015.53 1015.03 1014.62 1014.91 1014.66 1014.11 1013.28 1013.25 1013.34 1013.92 1013.50 1012.49 1011.84 1011.65 1011.40 1011.27 1010.85 1010.69 1011.23 1011.57 1012.05 1012.26 1012.03 1011.23 1011.34 1011.29 1011.16 1010.87 1010.39 1009.40 1009.12 1008.33 1007.97 1006.84 1006.50 1003.14 1002.73 1001.42 1000.34 1000.41 1000.01 1000.02 1000.05 1000.26
1015.93 1015.31 1014.91 1014.58 1014.59 1014.28 1013.82 1013.36 1013.23 1013.49 1014.40 1013.47 1012.56 1011.76 1012.14 1012.64 1012.30 1011.40 1011.32 1011.18 1011.90 1012.42 1013.09 1012.11 1011.41 1011.35 1011.13 1010.46 1010.37 1009.65 1008.78 1008.45 1007.66 1007.50 1007.38 1005.87 1005.82 1001.89 1000.69 999.86 998.92 998.94 999.05 999.13 999.31
1015.60 1015.03 1014.60 1014.59 1014.73 1013.80 1013.39 1013.17 1013.35 1014.29 1014.45 1013.84 1012.96 1012.76 1013.12 1012.94 1012.62 1012.22 1011.97 1011.98 1012.35 1012.73 1012.81 1012.05 1011.39 1011.23 1010.49 1009.87 1009.58 1008.88 1008.51 1007.31 1007.15 1007.31 1006.95 1005.81 1005.47 1002.32 1001.82 1000.27 999.03 998.03 998.15 998.03 998.46
1015.04 1014.81 1014.50 1014.43 1014.19 1013.40 1013.34 1013.87 1014.74 1014.82 1015.22 1014.55 1013.84 1013.83 1013.84 1013.70 1013.39 1013.15 1013.14 1013.35 1013.82 1013.89 1013.50 1012.54 1011.37 1010.48 1010.03 1009.64 1008.91 1008.98 1008.97 1007.99 1007.74 1007.38 1006.49 1005.53 1005.04 1002.33 1001.26 999.72 998.69 997.81 997.62 997.23 997.19
1015.22 1014.49 1014.28 1013.85 1013.45 1013.18 1013.61 1014.58 1015.47 1015.79 1015.42 1014.73 1014.52 1014.47 1014.57 1014.41 1014.19 1014.07 1013.96 1014.21 1014.31 1014.66 1014.66 1013.97 1011.96 1010.52 1009.89 1010.16 1009.82 1009.36 1009.72 1009.76 1008.97 1007.42 1005.69 1004.68 1003.90 1001.56 1000.48 999.57 998.59 997.92 997.07 996.72 996.78
1015.28 1014.54 1014.23 1013.47 1013.04 1013.03 1014.23 1015.93 1016.26 1015.85 1015.38 1015.20 1015.10 1015.23 1015.35 1015.14 1015.11 1014.85 1014.70 1014.61 1014.45 1014.64 1015.17 1014.56 1012.58 1010.37 1009.86 1009.30 1009.46 1009.12 1009.38 1009.20 1008.57 1007.18 1006.22 1004.32 1003.09 1001.69 1000.20 999.29 998.52 998.11 998.31 997.14 996.38
1017.00 1016.07 1014.77 1013.49 1013.02 1013.55 1015.19 1016.61 1016.29 1015.56 1015.14 1015.22 1015.60 1015.70 1015.87 1015.63 1015.74 1015.42 1014.85 1014.45 1014.46 1014.56 1014.77 1014.70 1013.40 1010.70 1009.51 1008.83 1008.95 1009.08 1008.87 1008.84 1008.66 1007.44 1005.55 1003.73 1002.74 1002.10 1000.53 999.09 998.69 997.94 997.82 997.40 996.72
1017.39 1016.54 1014.46 1013.68 1013.58 1015.35 1017.20 1017.18 1016.31 1015.32 1015.16 1015.31 1015.53 1015.96 1016.12 1016.14 1015.79 1015.54 1014.96 1014.28 1014.14 1014.32 1014.62 1014.70 1014.39 1011.40 1010.45 1009.38 1009.26 1009.12 1008.78 1008.52 1008.12 1007.44 1006.16 1004.58 1002.81 1002.26 1001.47 1000.22 999.20 998.34 997.72 997.65 996.66
1019.24 1018.08 1015.03 1014.01 1015.85 1018.03 1018.45 1017.77 1016.79 1015.90 1015.41 1015.33 1015.49 1015.88 1016.08 1016.24 1016.00 1015.65 1015.12 1014.46 1013.90 1014.09 1014.36 1014.28 1013.97 1012.64 1010.76 1009.18 1009.02 1009.31 1008.73 1008.21 1007.45 1006.87 1006.29 1005.36 1003.63 1002.35 1001.74 1000.59 999.70 998.54 997.78 996.88 996.11
1020.60 1019.20 1016.14 1015.66 1018.11 1019.38 1018.97 1018.15 1017.28 1016.65 1016.28 1016.08 1016.06 1015.99 1016.43 1016.49 1016.44 1015.52 1014.75 1013.80 1013.82 1013.97 1013.89 1013.93 1013.90 1012.85 1010.71 1009.80 1009.34 1009.39 1008.82 1008.33 1007.54 1006.48 1006.33 1005.82 1004.41 1002.47 1001.72 1001.00 1000.06 998.82 997.24 996.20 995.80
1020.97 1020.57 1019.16 1019.16 1020.03 1020.39 1020.17 1019.24 1018.34 1017.42 1016.91 1016.78 1016.52 1016.39 1016.99 1016.79 1016.16 1015.47 1014.77 1013.99 1013.64 1013.42 1013.39 1013.70 1013.68 1013.34 1012.70 1011.38 1010.36 1009.73 1008.90 1008.12 1007.45 1007.09 1006.09 1005.72 1004.44 1002.94 1002.24 1001.59 1000.72 999.76 997.99 996.73 996.18
1021.82 1022.34 1022.02 1021.38 1021.14 1021.17 1020.82 1020.19 1019.46 1018.62 1017.74 1017.26 1016.98 1017.29 1017.85 1017.55 1016.63 1015.72 1014.97 1014.41 1013.64 1013.05 1013.30 1013.60 1013.35 1012.72 1011.73 1010.78 1009.78 1009.10 1008.53 1008.47 1007.73 1007.91 1006.88 1005.90 1004.96 1004.23 1003.49 1002.93 1002.20 1001.21 999.70 998.46 997.94
1022.76 1023.04 1022.71 1022.40 1021.96 1021.46 1021.00 1020.68 1020.15 1019.68 1019.19 1018.01 1017.75 1017.51 1017.59 1017.72 1016.96 1016.18 1015.48 1015.17 1014.54 1013.46 1013.49 1013.47 1013.09 1012.25 1011.26 1010.03 1009.35 1008.83 1009.01 1008.51 1007.91 1007.91 1007.32 1006.43 1005.52 1005.08 1004.14 1003.49 1002.90 1002.50 1001.49 1000.49 999.58
1022.99 1023.17 1023.10 1022.64 1022.23 1021.88 1021.50 1021.19 1020.70 1020.33 1018.95 1018.48 1018.18 1017.85 1017.07 1016.58 1016.50 1015.21 1014.88 1014.48 1014.31 1014.04 1013.73 1013.66 1013.18 1012.61 1011.52 1010.20 1009.32 1009.17 1009.10 1008.63 1008.13 1008.18 1007.96 1007.07 1006.41 1005.39 1004.62 1003.76 1004.47 1003.74 1002.97 1002.14 1001.37
Wind_Speed
16 14 13 11 11 11 10 10 10 10 11 11 12 14 14 15 13 3 2 3 4 8 7 5 2 4 3 3 2 4 4 1 4 2 2 6 6 5 3 6 3 5 15 11 19
16 15 14 12 10 10 10 10 11 11 12 13 13 13 14 14 2 3 5 5 4 6 5 7 7 6 3 3 3 4 4 6 5 3 6 5 5 7 5 9 5 12 17 8 14
17 16 14 12 10 9 9 10 11 12 12 13 13 13 13 5 1 3 4 5 3 3 2 2 1 3 4 4 3 1 5 5 5 8 5 3 7 4 5 6 7 9 14 15 8
18 17 15 12 11 9 9 9 10 12 12 13 15 15 14 2 6 4 4 4 2 0 3 1 5 4 2 1 2 2 9 7 5 5 6 8 4 6 9 10 9 10 15 13 13
19 17 14 13 11 10 9 9 9 11 12 12 15 15 3 4 0 3 1 1 2 4 4 3 4 2 2 3 4 5 4 4 7 10 9 10 11 11 11 13 15 11 13 15 12
19 18 16 14 12 10 9 8 8 9 10 11 13 13 3 4 1 4 2 2 1 2 3 1 2 2 2 4 3 3 7 11 9 13 8 10 16 6 8 11 13 10 12 12 11
17 17 15 15 13 11 8 6 6 6 7 9 9 4 3 4 2 4 5 3 3 3 4 4 3 2 1 6 2 5 8 7 5 4 7 2 9 10 13 9 8 6 8 10 11
18 16 16 15 13 11 9 6 5 5 5 5 6 2 5 3 3 4 5 5 6 7 4 9 2 2 3 3 7 6 2 5 5 8 7 6 17 6 9 3 8 9 6 8 11
19 17 17 15 14 12 10 5 3 3 3 3 3 3 6 6 4 4 6 6 2 3 5 3 3 3 3 2 5 3 7 6 10 5 6 5 15 5 6 12 18 9 7 8 10
20 18 16 15 13 11 9 3 4 2 1 2 3 3 5 8 4 3 2 2 3 5 5 1 4 2 3 4 6 9 10 9 16 6 12 19 25 25 13 10 16 10 7 8 9
21 19 16 14 12 9 2 3 5 4 3 1 6 3 7 11 3 3 2 3 2 1 3 2 1 9 15 9 13 14 14 18 23 15 13 19 25 25 21 10 14 9 8 8 10
22 20 17 14 12 2 1 3 3 3 5 2 4 5 8 4 4 10 2 1 1 5 2 4 10 13 7 7 9 11 15 23 18 13 9 17 25 22 23 19 15 15 11 10 9
23 20 16 13 4 2 1 1 1 3 2 6 2 1 7 4 3 11 2 1 3 4 5 5 13 14 5 8 12 12 11 18 22 20 15 22 29 18 16 20 18 17 17 12 13
24 20 14 11 2 1 4 1 4 3 5 6 6 4 8 10 8 6 2 3 3 4 6 8 4 2 10 6 5 7 5 11 15 12 10 4 17 18 15 17 14 14 13 15 15
26 20 12 4 2 0 1 5 3 5 4 9 6 2 8 4 7 5 3 3 4 6 3 10 6 5 6 5 2 12 15 14 18 15 13 15 8 10 8 13 19 17 12 10 14
26 20 7 1 1 5 6 2 5 8 2 6 3 6 6 5 9 6 5 6 2 3 3 14 5 4 5 5 8 12 7 19 9 2 4 7 6 8 7 8 13 6 11 13 14
31 21 2 0 5 3 2 5 7 7 4 7 7 6 5 6 6 7 5 7 3 7 13 10 4 4 2 8 5 5 11 6 6 1 5 7 4 10 11 13 9 10 11 11 14
32 14 2 3 5 2 4 7 8 3 5 5 5 6 4 7 5 8 7 6 1 1 4 5 11 4 1 2 8 8 2 3 8 6 12 4 7 7 10 13 12 9 7 8 9
22 5 4 6 5 3 8 7 4 3 4 5 8 3 4 4 2 7 4 3 1 1 3 5 8 6 11 9 3 3 5 4 6 5 4 3 6 6 16 16 17 12 6 4 2
4 4 4 11 4 6 8 2 2 3 3 2 3 1 4 6 6 5 3 3 4 2 3 4 10 5 8 4 1 2 8 3 3 6 4 5 2 4 21 26 21 18 12 8 8
5 6 5 11 5 8 5 3 4 5 2 2 2 4 5 5 3 4 5 5 1 3 5 1 5 10 9 3 5 4 7 4 4 4 4 6 1 4 15 19 18 18 14 7 11
3 5 5 6 7 2 1 3 5 4 4 3 2 5 3 5 4 3 4 3 4 2 4 4 3 7 15 15 6 6 7 6 4 7 2 4 4 6 17 16 14 15 14 10 11
3 4 5 6 5 4 6 5 3 6 5 4 5 2 5 3 5 5 4 5 6 4 3 2 2 8 9 6 6 4 14 16 13 6 4 3 7 14 14 15 18 18 16 8 4
3 5 6 6 2 3 6 4 6 7 5 4 5 4 6 5 5 6 3 4 7 4 8 2 2 6 5 14 15 13 14 19 8 6 10 2 14 17 21 21 22 22 18 11 2
4 1 3 5 3 3 1 4 6 8 4 5 3 4 3 5 6 5 4 5 7 5 3 3 5 4 9 14 14 15 12 17 13 16 7 19 15 20 19 16 18 17 19 14 9
3 3 5 4 4 4 3 4 3 4 4 7 2 12 5 6 7 16 9 1 7 2 2 3 5 4 11 8 11 14 10 12 7 14 13 17 11 18 18 15 20 18 18 14 11
1 1 4 3 4 2 1 3 4 9 6 7 8 9 8 7 8 20 15 15 14 7 3 3 3 5 6 7 11 1 10 9 10 10 11 12 14 18 18 14 13 15 17 14 10
Wind_Direction
354 351 350 346 344 343 340 336 332 326 327 332 333 332 334 333 331 354 8 224 236 331 339 304 106 30 64 66 72 126 51 327 276 322 253 305 359 306 280 264 260 284 295 287 311
357 355 353 349 344 340 341 338 334 329 330 330 332 331 331 333 315 293 237 246 296 322 12 27 6 7 41 16 24 91 114 226 221 272 271 278 293 286 292 293 273 282 280 295 310
360 360 357 352 348 341 341 341 331 329 331 331 332 330 326 341 348 305 185 219 268 332 311 308 353 54 54 13 22 94 194 220 257 262 253 251 296 242 273 272 221 257 282 295 290
357 353 354 350 345 343 340 334 332 325 327 330 329 331 324 183 74 271 172 178 210 304 300 18 28 38 82 345 277 303 238 234 255 278 320 290 253 258 240 251 246 256 263 275 277
356 353 347 346 346 340 333 326 323 323 327 332 331 336 357 33 204 301 147 55 27 340 359 7 36 88 31 273 304 216 266 283 271 281 253 260 248 250 248 262 264 257 269 271 263
354 348 341 337 340 341 329 316 310 318 323 331 338 336 26 52 340 14 118 32 255 343 315 213 259 219 234 247 161 247 264 273 261 255 259 257 262 237 223 230 257 253 267 276 261
351 346 340 335 333 335 329 307 297 309 317 329 344 4 33 231 48 22 153 214 185 204 285 246 221 104 349 303 249 276 307 319 258 244 251 241 284 223 245 244 249 274 281 288 280
347 342 339 334 331 332 330 318 298 294 303 325 353 9 253 295 333 288 146 281 233 233 232 262 181 154 191 289 350 342 324 341 279 305 264 115 276 295 258 256 291 283 263 291 292
345 341 337 335 330 331 323 314 270 265 255 295 5 40 299 324 297 287 156 221 327 287 225 244 129 204 23 16 349 326 268 284 305 226 281 160 289 260 297 306 284 261 243 272 289
345 340 335 332 330 330 328 141 138 137 213 204 241 21 325 311 279 244 209 124 247 304 330 88 48 342 30 81 275 280 281 277 275 255 296 287 273 283 272 242 255 247 251 244 266
344 340 336 331 330 327 310 99 19 350 60 58 292 256 285 295 276 318 139 117 189 17 260 337 310 261 270 244 260 282 276 264 275 279 281 271 272 279 287 236 250 246 236 232 253
344 342 338 329 328 296 194 69 180 184 324 216 254 274 257 268 320 349 19 314 260 264 318 341 258 282 286 277 270 265 273 280 282 280 258 271 265 270 268 261 244 246 238 216 241
345 343 340 337 64 102 354 245 103 116 99 311 263 341 310 8 322 351 35 26 270 284 258 227 263 316 308 301 290 269 259 275 279 296 274 280 279 259 257 254 256 247 236 214 215
348 344 341 337 64 248 280 112 329 129 69 316 335 333 2 329 356 342 328 222 295 279 311 268 278 313 312 276 267 288 249 271 281 296 299 188 294 284 275 265 242 226 214 216 211
345 343 336 332 256 316 294 311 132 62 33 305 306 291 333 63 274 309 5 343 277 281 62 265 299 320 297 238 285 260 292 279 275 273 295 279 264 269 297 272 268 247 218 204 209
342 342 333 95 51 255 320 350 52 44 329 330 315 336 18 330 321 319 9 25 249 326 248 261 300 236 232 265 262 279 304 293 278 276 227 272 188 283 342 275 291 244 216 205 209
336 338 297 348 298 308 341 53 35 81 17 305 299 0 323 327 315 354 334 1 32 357 343 319 278 260 209 305 291 25 332 308 344 322 252 229 230 253 287 322 298 274 223 215 207
327 327 236 232 298 313 61 52 67 255 269 281 317 328 317 357 314 330 355 353 213 76 307 2 325 12 359 217 274 307 321 308 303 300 296 293 238 271 322 332 323 329 296 206 196
323 339 347 327 328 65 69 53 188 238 256 304 331 8 322 315 304 6 320 290 300 109 22 339 271 297 291 283 191 354 312 254 267 239 266 215 274 291 330 334 342 348 15 359 318
346 346 294 325 339 58 70 203 222 223 322 51 1 347 312 311 348 2 300 282 339 189 153 267 292 262 311 319 180 218 311 290 226 303 292 285 285 322 338 335 337 339 350 339 303
29 14 270 342 45 44 96 245 292 298 27 251 265 284 267 299 267 293 272 292 92 294 175 227 211 295 325 323 334 342 315 281 269 250 286 301 335 334 331 325 324 325 321 298 281
14 350 315 2 50 43 35 291 282 337 344 328 297 218 238 292 286 277 259 258 3 332 299 225 274 288 283 289 248 309 304 303 285 314 285 269 308 300 326 332 333 313 304 275 257
11 269 321 50 65 346 314 313 305 353 313 27 290 252 30 295 307 223 249 257 299 347 252 202 282 304 331 12 10 355 324 344 314 274 285 326 307 318 335 0 346 347 349 307 252
35 347 331 40 48 56 352 320 331 331 295 350 266 62 2 302 235 273 289 302 310 259 230 148 266 214 261 287 294 298 330 348 353 339 317 332 320 360 2 0 353 350 354 18 42
24 328 180 316 358 353 283 329 338 4 322 317 319 67 339 291 289 248 259 315 290 297 162 183 257 232 249 270 285 270 355 345 2 356 356 335 356 357 351 353 353 354 1 24 30
56 25 356 306 326 342 14 23 300 333 264 299 288 312 306 231 241 289 316 235 249 310 258 208 272 284 303 297 309 310 4 340 12 5 353 342 342 351 339 344 5 1 3 12 26
234 38 101 298 343 15 239 345 308 325 276 249 305 318 295 247 283 276 264 258 247 273 311 255 265 313 274 300 315 84 6 334 326 27 356 347 328 336 342 339 15 356 5 5 14